Powrót do katalogu

STARLINK-32282

AktywnyŁącznośćVLEO
NORAD 61006·PAYLOAD·🇺🇸 United States

Wystrzelony Sep 5, 2024 z Cape Canaveral Space Force Station

Loading…

Następne Przeloty (najbliższe 24 godziny)

TLE

ŚwieżeSource: CelesTrak SupGP

Epoka: Sep 15, 2026, 02:10 UTC

1 61006C 24158S   26258.09076389 -.00003515  00000+0 -10361-3 0  2585
2 61006  53.1573 262.8834 0001169  92.6450 146.6842 15.34462107    10

Śledź STARLINK-32282 w czasie rzeczywistym z AllMySat

Download on the App Store